Flag for Germany Weather past 2 weeks in Rottenburg am Neckar, Baden-Württemberg, Germany

Now
57 °F

Sprinkles. Overcast.


Feels Like: 57 °F
Forecast: 39 / 57 °F
Wind: 3 mph from Southeast

Location: Stuttgart-Echterdingen

Current Time: May 25, 2015 at 6:04:45 PM

Latest Report: May 25, 2015 at 5:00 PM


Visibility: 13 mi

Pressure: 29.92 "Hg

Humidity: 87%

Dew point: 53 °F

Location of Rottenburg am NeckarLocation

Historic Weather in Rottenburg am Neckar — Graph

°F

Rottenburg am Neckar temperature yesterday

Maximum temperature yesterday: 65 °F (at 1:00 PM)
Minimum temperature yesterday: 56 °F (at 6:00 AM)
Average temperature yesterday: 60 °F

Past Weeks' High & Low Weather Summary

 TemperatureHumidityPressure
High84 °F (May 12, 5:00 PM)98% (May 16, 7:00 AM)30.36 "Hg (May 16, 7:00 AM)
Low37 °F (May 22, 6:00 AM)27% (May 12, 4:00 PM)29.71 "Hg (May 18, 7:00 PM)
Average58 °F65%30.07 "Hg
* Reported May 10 4:00 PM — May 25 4:00 PM, Rottenburg am Neckar, Weather by CustomWeather, © 2015

Note: Actual official high and low records may vary slightly from our data, if they occured in-between our weather recording intervals... More about our weather records

Advertising

Rottenburg am Neckar weather history for previous 24 hours

 ConditionsComfort  
Time TempWeatherWind HumidityBarometerVisibility
4:00 PM
Mon, May 25
61 °FSprinkles. Overcast.1 mph79%29.91 "Hg16 mi
3:00 PM59 °FOvercast.1 mph85%29.93 "Hg1 mi
2:00 PM60 °FSprinkles. Overcast.2 mph71%29.93 "Hg6 mi
1:00 PM58 °FLight rain. Overcast.5 mph83%29.95 "Hg12 mi
12:00 PM64 °FSprinkles. Overcast.1 mph63%29.94 "Hg25 mi
10:00 AM60 °FOvercast.1 mph64%29.98 "Hg31 mi
9:00 AM58 °FOvercast.1 mph69%29.99 "Hg28 mi
8:00 AM56 °FOvercast.1 mph78%29.99 "Hg28 mi
7:00 AM54 °FOvercast.No wind77%30.01 "Hg28 mi
6:00 AM54 °FOvercast.1 mph83%30.01 "Hg22 mi
4:00 AM55 °FOvercast.1 mph74%30.02 "Hg28 mi
3:00 AM56 °FOvercast.1 mph74%30.02 "Hg28 mi
2:00 AM55 °FOvercast.No wind82%30.04 "Hg28 mi
1:00 AM56 °FOvercast.1 mph76%30.04 "Hg25 mi
12:00 AM57 °FOvercast.1 mph76%30.05 "Hg19 mi
10:00 PM
Sun, May 24
59 °FOvercast.1 mph71%30.05 "Hg19 mi
9:00 PM59 °FOvercast.2 mph72%30.04 "Hg22 mi
8:00 PM62 °FOvercast.3 mph67%30.03 "Hg28 mi
7:00 PM62 °FOvercast.1 mph61%30.03 "Hg25 mi
6:00 PM63 °FOvercast.3 mph61%30.04 "Hg25 mi
Weather by CustomWeather, © 2015

See weather overviewHow to use our weather pages